608  
ASUS42 KCAE 181610  
RWRCAE  
REGIONAL WEATHER ROUNDUP  
NATIONAL WEATHER SERVICE COLUMBIA SC  
1200 PM EDT FRI AUG 18 2017  
 
NOTE: "FAIR" INDICATES FEW OR NO CLOUDS BELOW 12,000 FEET WITH NO  
SIGNIFICANT WEATHER AND/OR S TO VISIBILITY
.  
 
NOT ALL STATIONS ARE QUALITY CONTROLLED BY THE NATIONAL  
WEATHER SERVICE. USE DATA WITH CAUTION...ESPECIALLY  
DEWPOINT OBSERVATIONS.  
 
SCZ001>056-GAZ040-063>065-077-181700-   
..UPSTATE SOUTH CAROLINA
 
 
 
CITY SKY/WX TMP DP RH WIND PRES REMARKS
 
ANDERSON MOSUNNY 90 72 55 W12 29.98S HX 97  
LIBERTY SUNNY 88 74 62 SW7 29.98S HX 97  
SPARTANBURG SUNNY 88 70 55 W8G16 29.97S  
CLEMSON SUNNY 89 72 56 W13 29.98F HX 96  
GREENVILLE SUNNY 89 72 56 W8 29.99S HX 96  
GREENWOOD SUNNY 90 73 57 SW10G18 29.99F HX 98  
GREER MOSUNNY 88 74 63 SW9 29.97S HX 96  
ROCK HILL SUNNY 88 74 63 W10 29.95F HX 96  
CHESTER SUNNY 90 68 48 W7 29.96F  
LAURENS SUNNY 90 70 51 W9G21 29.97S HX 95  
 
   
..CENTRAL SOUTH CAROLINA
 
 
 
CITY SKY/WX TMP DP RH WIND PRES REMARKS
 
COLUMBIA APT MOSUNNY 93 72 50 W9 29.95S HX 101  
COLUMBIA OWENS SUNNY 93 69 45 W7 29.96S HX 98  
MCENTIRE ANGB MOSUNNY 92 73 53 W5 29.96F HX 100  
ORANGEBURG MOSUNNY 91 72 53 VRB6 29.97F HX 98  
SUMTER SHAW SUNNY 92 72 51 SW8 29.93F HX 99  
NEWBERRY MOSUNNY 90 73 58 W12 29.99F HX 98  
AIKEN PTSUNNY 90 72 55 W9 30.02S HX 96  
BARNWELL FAIR 93 75 55 SW8 29.97F HX 104  
MANNING FAIR 90 72 55 CALM 29.97S HX 96  
CAMDEN FAIR 93 72 49 W8G15 29.95F HX 100  
LANCASTER SUNNY 90 72 55 W6 29.95S HX 96  
WINNSBORO SUNNY 91 70 49 W8G16 29.96S HX 97  
 
   
..EASTERN AND COASTAL SOUTH CAROLINA
 
 
 
CITY SKY/WX TMP DP RH WIND PRES REMARKS
 
MYRTLE BEACH MOSUNNY 91 77 62 W9 29.98S HX 105  
N MYRTLE BCH MOSUNNY 90 77 65 VRB5 29.96F HX 103  
CONWAY FAIR 90 77 66 SW6 29.97S HAZE HX 102  
MARION FAIR 90 73 58 W8 29.96F HX 98  
HARTSVILLE FAIR 90 70 51 SW10G17 29.95S HX 95  
FLORENCE SUNNY 90 75 61 SW9 29.95F HX 100  
DARLINGTON N/A 90 77 65 S9 29.95F HX 103  
CHARLESTON APT MOSUNNY 92 75 57 W6 29.98F HX 103  
MOUNT PLEASANT FAIR 91 77 62 NW5 29.98F HX 105  
WALTERBORO SUNNY 90 73 58 W3 29.99F HX 98  
BEAUFORT MOSUNNY 92 77 61 W8 29.98F HX 105  
 
   
..EASTERN GEORGIA
 
 
 
CITY SKY/WX TMP DP RH WIND PRES REMARKS
 
AUGUSTA BUSH F PTSUNNY 93 73 52 VRB6 29.97S HX 102  
AUGUSTA DANIEL MOSUNNY 90 70 51 NW8 29.99F HX 95  
THOMSON MOSUNNY 90 74 59 NW8 30.03F HX 98  
WASHINGTON FAIR N/A N/A N/A W8G17 29.99F  
CLAXTON FAIR 92 73 54 NW3 30.00F HX 101  
SYLVANIA SUNNY 91 75 58 W3 30.00F HX 101  
STATESBORO SUNNY 91 67 45 W5 30.00S  
SAVANNAH MOSUNNY 92 73 53 W6 30.00S HX 100  
 
   
..SOUTHERN NORTH CAROLINA
 
 
 
CITY SKY/WX TMP DP RH WIND PRES REMARKS
 
CHARLOTTE MOSUNNY 88 77 69 SW8 29.96F HX 100  
MONROE SUNNY 88 71 57 SW8 29.94F  
WADESBORO SUNNY 92 71 49 SW7 29.92F HX 98  
ROCKINGHAM SUNNY 91 73 56 SW9 29.94S HX 99  
RUTHERFORDTON MOSUNNY 85 71 63 S5 29.99S  
ASHEVILLE MOSUNNY 80 70 71 W5 30.05S  
 

 
 
 
CLICK HERE TO GO TO PREVIOUS BULLETINS.

The Nexlab SC Page
The Nexlab GA Page Main Text Page